Weather History for CWYL - February, 2013

Change the Weather History Date:

Thursday, February 28, 2013

  Actual Average Record
Temperature  
Mean Temperature 22 °F -  
Max Temperature 26 °F - - ()
Min Temperature 19 °F - - ()
Degree Days  
Heating Degree Days 42    
Moisture  
Dew Point 21 °F    
Average Humidity 91    
Maximum Humidity 94    
Minimum Humidity 83    
Precipitation  
Precipitation 0.00 in - - ()
Sea Level Pressure  
Sea Level Pressure 30.30 in    
Wind  
Wind Speed 13 mph ()    
Max Wind Speed 18 mph    
Max Gust Speed -    
T = Trace of Precipitation, MM = Missing Value Source: Averaged Metar Reports

Daily Weather History Graph

Daily Weather History Graph

Search for Another Location

Airport or City:

Trip Planner

Search our weather history database for the weather conditions in past years. The results will help you decide how hot, cold, wet, or windy it might be!

Date:

Astronomy

Feb. 28, 2013 Rise Set
Actual Time 7:31 AM MST 6:24 PM MST
Civil Twilight 6:58 AM MST 6:58 PM MST
Nautical Twilight 6:19 AM MST 7:36 PM MST
Astronomical Twilight 5:41 AM MST 8:15 PM MST
Moon 10:28 PM MST (2/28) 8:16 AM MST (2/28)
Length of Visible Light 12h 00m
Length of Day
10h 53m
Waning Gibbous, 90% of the Moon is Illuminated
Feb 28
Waning Gibbous
Mar 4
Last Quarter
Mar 11
New
Mar 19
First Quarter
Mar 27
Full

Hourly Weather History & Observations

Time (MST) Temp. Windchill Dew Point Humidity Pressure Visibility Wind Dir Wind Speed Gust Speed Precip Events Conditions
12:00 AM 21.4 °F 9.7 °F 19.2 °F 91% 30.25 in - West 11.5 mph - N/A   Unknown
1:00 AM 21.0 °F 8.1 °F 18.7 °F 91% 30.23 in - West 13.8 mph - N/A   Unknown
2:00 AM 20.8 °F 6.8 °F 18.9 °F 92% 30.25 in - West 16.1 mph - N/A   Unknown
3:00 AM 20.7 °F 5.7 °F 19.0 °F 93% 30.25 in - West 18.4 mph - N/A   Unknown
4:00 AM 20.7 °F 5.7 °F 19.0 °F 93% 30.26 in - WSW 18.4 mph - N/A   Unknown
5:00 AM 20 °F - 19 °F 92% 30.28 in - West 16.1 mph - -  
5:00 AM 20.3 °F 6.1 °F 18.7 °F 93% 30.28 in - West 16.1 mph - N/A   Unknown
6:00 AM 20.5 °F 6.4 °F 18.9 °F 93% 30.29 in - WSW 16.1 mph - N/A   Unknown
7:00 AM 20.5 °F 7.4 °F 19.0 °F 94% 30.31 in - WSW 13.8 mph - N/A   Unknown
8:00 AM 19.9 °F 7.9 °F 18.5 °F 94% 30.33 in - WSW 11.5 mph - N/A   Unknown
9:00 AM 20.3 °F 6.6 °F 18.9 °F 94% 30.34 in - WSW 15.0 mph - N/A   Unknown
10:00 AM 21.6 °F 8.2 °F 19.9 °F 93% 30.36 in - West 15.0 mph - N/A   Unknown
11:00 AM 22 °F - 20 °F 89% 30.35 in - West 13.8 mph - -  
11:00 AM 22.1 °F 9.5 °F 20.1 °F 92% 30.35 in - West 13.8 mph - N/A   Unknown
12:00 PM 25.5 °F 13.3 °F 23.0 °F 90% 30.33 in - West 15.0 mph - N/A   Unknown
1:00 PM 26.8 °F 14.1 °F 23.4 °F 87% 30.35 in - WSW 17.3 mph - N/A   Unknown
2:00 PM 26.4 °F 14.0 °F 22.8 °F 86% 30.34 in - West 16.1 mph - N/A   Unknown
3:00 PM 26.2 °F 14.2 °F 22.8 °F 87% 30.32 in - West 15.0 mph - N/A   Unknown
4:00 PM 26.1 °F 13.1 °F 22.6 °F 87% 30.31 in - West 17.3 mph - N/A   Unknown
5:00 PM 26 °F - 23 °F 83% 30.30 in - WSW 17.3 mph - -  
5:00 PM 26.1 °F 13.1 °F 23.0 °F 88% 30.30 in - WSW 17.3 mph - N/A   Unknown
6:00 PM 25.2 °F 13.3 °F 22.1 °F 88% 30.32 in - WSW 13.8 mph - N/A   Unknown
7:00 PM 24.8 °F 14.6 °F 21.7 °F 88% 30.30 in - West 10.4 mph - N/A   Unknown
8:00 PM 24.6 °F 12.2 °F 21.7 °F 89% 30.29 in - West 15.0 mph - N/A   Unknown
9:00 PM 24.8 °F 11.5 °F 22.6 °F 91% 30.28 in - West 17.3 mph - N/A   Unknown
10:00 PM 24.3 °F 11.7 °F 22.5 °F 93% 30.27 in - West 15.0 mph - N/A   Unknown
11:00 PM 24 °F - 23 °F 93% 30.26 in - West 15.0 mph - -  
11:00 PM 24.3 °F 11.7 °F 22.8 °F 94% 30.26 in - West 15.0 mph - N/A   Unknown